SCP
0 0 0 0 0 0 0 0 0 0 0 0 0 0 0 0 0 0 0 0 0 0 0 0 0 0 1 1 0 0 0 0 0 0 0 0 0 0 1 1 1 1 2 2
0 0 0 0 0 0 0 0 0 0 0 0 0 0 0 0 0 0 0 0 0 0 0 0 0 0 1 1 0 0 0 0 0 0 0 0 0 0 1 1 1 1 1 2
0 0 0 0 0 0 0 0 0 0 0 0 0 0 0 0 0 0 0 0 0 0 0 0 0 0 1 1 0 0 0 0 0 0 0 0 0 0 0 1 1 1 1 1
0 0 0 0 0 0 0 0 0 0 0 0 0 0 0 0 0 0 0 0 0 0 0 0 0 0 1 1 0 0 0 0 0 0 0 0 0 0 0 0 1 1 1 1
0 0 0 0 0 0 0 0 0 0 0 0 0 0 0 0 0 0 0 0 0 0 0 0 0 0 1 1 0 0 0 0 0 0 0 0 0 0 0 0 1 1 1 1
0 0 0 0 0 0 0 0 0 0 0 0 0 0 0 0 0 0 0 0 0 0 0 0 0 1 1 1 0 0 0 0 0 0 0 0 0 0 0 0 1 1 1 1
0 0 0 0 0 0 0 0 0 0 0 0 0 0 0 0 0 0 0 0 0 0 0 0 0 0 1 1 1 0 0 0 0 0 0 0 0 0 0 0 1 1 2 1
0 0 0 0 0 0 0 0 0 0 0 0 0 0 0 0 0 0 0 0 0 0 0 0 0 0 1 1 1 0 0 0 0 0 0 0 0 0 0 0 1 1 1 1
0 0 0 0 0 0 0 0 0 0 0 0 0 0 0 0 0 0 0 0 0 0 0 0 0 0 1 1 1 0 0 0 0 0 0 0 0 0 0 0 0 1 1 1
0 0 0 0 0 0 0 0 0 0 0 0 0 0 0 0 0 0 0 0 0 0 0 0 0 0 1 1 1 0 0 0 0 0 0 0 0 0 0 0 0 1 1 1
0 0 0 0 0 0 0 0 0 0 0 0 0 0 0 0 0 0 0 0 0 0 0 0 0 0 1 1 1 1 0 0 0 0 0 0 0 0 0 0 0 1 1 1
0 0 0 0 0 0 0 0 0 0 0 0 0 0 0 0 0 0 0 0 0 0 0 0 0 0 0 1 1 1 0 0 0 0 0 0 0 0 0 0 0 1 1 1
0 0 0 0 0 0 0 0 0 0 0 0 0 0 0 0 0 0 0 0 0 0 0 0 0 0 0 0 0 0 0 0 0 0 0 0 0 0 0 0 0 1 1 1
0 0 0 0 0 0 0 0 0 0 0 0 0 0 0 0 0 0 0 0 0 0 0 0 0 0 0 0 0 0 0 0 0 0 0 0 0 0 0 0 0 0 0 0
0 0 0 0 0 0 0 0 0 0 0 0 0 0 0 0 0 0 0 0 0 0 0 0 0 0 0 0 0 0 0 0 0 0 0 0 0 0 0 0 0 0 0 0
0 0 0 0 0 0 0 0 0 0 0 0 0 0 0 0 0 0 0 0 0 0 0 0 0 0 0 0 0 0 0 0 0 0 0 0 0 0 0 0 0 0 0 0
0 0 0 0 0 0 0 0 0 0 0 0 0 0 0 0 0 0 0 0 0 0 0 0 0 0 0 0 0 0 0 0 0 0 0 0 0 0 0 0 0 0 0 0
0 0 0 0 0 0 0 0 0 0 0 0 0 0 0 0 0 0 0 0 0 0 0 0 0 0 0 0 0 0 0 0 0 0 0 0 0 0 0 0 0 0 0 0
0 0 0 0 0 0 0 0 0 0 0 0 0 0 0 0 0 0 0 0 0 0 0 0 0 0 0 0 0 0 0 0 0 0 0 0 0 0 0 0 0 0 0 0
0 0 0 0 0 0 0 0 0 0 0 0 0 0 0 0 0 0 0 0 0 0 0 0 0 0 0 0 0 0 0 0 0 0 0 0 0 0 0 0 0 0 0 0
0 0 0 0 0 0 0 0 0 0 0 0 0 0 0 0 0 0 0 0 0 0 0 0 0 0 0 0 0 1 0 0 0 0 0 0 0 0 0 0 0 0 0 0
0 0 0 0 0 0 0 0 0 0 0 0 0 0 0 0 0 0 0 0 0 0 0 0 0 0 0 0 0 0 0 0 0 0 0 0 0 0 0 0 0 0 0 0
0 0 0 0 0 0 0 0 0 0 0 0 0 0 0 0 0 0 0 0 0 0 0 0 0 0 0 0 0 0 0 0 0 0 0 0 0 0 0 0 0 0 0 0
0 0 0 0 0 0 0 0 0 0 0 0 0 0 0 0 0 0 0 0 0 0 0 0 0 0 0 0 0 0 0 0 0 0 0 0 0 0 0 0 0 0 0 0
0 0 0 0 0 0 0 0 0 0 0 0 0 0 0 0 0 0 0 0 0 0 0 0 0 0 0 0 0 0 0 0 0 0 0 0 0 0 0 0 0 0 0 0
0 0 0 0 0 0 0 0 0 0 -0 0 0 0 0 0 0 0 0 0 0 0 0 0 0 0 0 0 0 0 0 0 0 0 0 0 0 0 0 0 0 0 0 0
Wind_Speed
3 1 3 4 5 5 5 5 6 4 1 3 6 8 7 5 5 6 5 5 5 4 4 4 4 4 4 3 3 3 3 2 2 1 1 1 1 1 1 1 1 1 2 1
2 4 5 4 3 5 5 6 6 4 1 3 6 9 8 6 7 7 6 6 5 4 4 5 4 4 4 4 3 3 3 2 2 1 1 1 1 1 1 1 1 1 1 1
4 2 2 3 3 4 5 5 5 5 5 5 6 7 8 6 7 6 6 5 5 6 6 5 5 4 4 4 4 3 3 2 1 1 1 1 1 1 1 1 0 0 1 1
4 3 3 3 4 5 6 3 4 4 4 4 3 5 6 5 6 7 7 6 6 5 5 5 6 6 5 4 3 3 3 3 2 1 1 2 1 1 1 1 0 0 0 0
3 1 3 4 4 4 2 3 4 4 5 6 5 5 6 5 5 7 7 6 5 6 6 6 6 6 5 5 4 3 3 3 2 2 2 2 1 1 1 1 1 0 0 0
4 2 2 3 3 2 1 3 4 3 3 6 6 6 7 4 6 5 6 6 5 5 5 5 5 5 4 4 4 3 3 3 2 2 1 2 2 1 2 1 1 1 1 0
4 4 2 2 1 2 2 1 1 2 4 6 3 5 7 3 2 4 5 5 5 5 5 5 5 5 4 5 4 4 4 3 2 2 2 2 1 2 2 2 2 2 1 1
4 4 4 3 3 3 4 3 3 4 4 3 2 7 5 2 2 1 2 3 4 4 4 4 4 5 4 4 4 4 4 3 3 2 2 1 1 1 1 1 1 2 1 2
3 3 2 1 2 2 3 4 3 2 2 4 6 5 3 2 2 2 2 2 3 4 4 4 4 4 4 4 4 4 4 3 3 3 2 2 2 1 1 1 1 1 1 1
1 3 2 2 1 3 3 2 1 3 3 5 6 6 4 4 4 4 3 4 3 3 4 4 4 3 4 4 3 3 4 3 3 2 2 2 1 1 1 1 1 1 1 1
2 2 2 3 6 6 4 4 4 3 4 4 5 5 1 2 3 4 5 4 3 3 4 3 3 3 3 3 3 3 3 3 2 2 2 1 1 1 1 1 1 1 1 1
2 2 4 5 2 2 4 6 6 4 5 5 5 7 1 2 1 2 2 2 3 3 3 3 3 3 3 3 3 3 3 2 2 2 1 1 1 1 1 1 1 1 1 1
3 3 2 2 2 2 4 5 5 3 3 5 6 8 0 1 2 1 0 1 2 2 2 3 3 3 3 3 2 2 3 2 2 2 2 2 1 1 1 1 1 1 2 1
2 4 7 8 4 3 5 7 7 6 6 8 11 10 6 4 3 2 1 1 1 2 2 2 3 3 2 2 2 2 2 2 2 2 2 2 2 2 1 1 1 1 2 2
2 5 5 8 7 4 7 9 10 12 12 11 10 11 11 6 4 3 2 2 2 2 2 3 3 3 3 2 2 2 2 2 2 2 1 2 1 1 1 1 1 1 2 2
3 4 3 7 6 6 10 12 13 14 13 14 13 14 8 5 3 2 2 3 4 4 3 3 3 3 3 3 2 2 2 2 2 2 2 1 0 0 1 1 1 1 1 2
4 4 3 6 3 3 11 13 13 11 10 10 15 13 4 4 3 4 4 3 4 4 3 3 3 3 3 3 2 2 2 2 2 2 1 1 1 0 1 1 1 1 1 1
5 4 4 3 2 10 10 3 7 9 10 11 10 6 4 5 4 4 4 3 3 3 3 2 2 2 2 2 2 2 2 2 2 1 1 1 1 1 1 1 1 1 1 1
5 5 4 3 6 11 7 5 5 6 10 9 11 8 5 1 3 4 1 1 2 2 2 2 2 2 2 2 2 2 1 2 2 1 1 1 1 1 1 1 1 1 1 1
4 4 5 5 7 10 7 2 1 2 9 5 6 7 5 2 4 5 1 0 0 0 1 2 2 3 2 2 2 2 2 1 1 1 1 1 0 1 1 2 1 1 1 1
4 5 8 9 9 10 4 1 3 5 7 2 3 4 4 5 6 2 1 1 1 1 2 3 3 2 2 2 2 2 2 1 0 1 1 1 0 1 1 1 1 1 1 1
9 8 8 7 10 11 3 4 6 6 2 2 2 2 3 3 2 1 1 1 2 2 2 3 2 2 2 2 2 2 1 1 1 1 1 1 1 1 0 0 1 0 0 1
8 8 6 9 9 3 4 5 4 1 2 2 2 2 1 2 2 1 1 1 1 1 2 2 2 1 2 2 2 1 0 1 1 1 1 1 1 1 0 0 0 0 0 0
5 3 4 6 7 4 4 4 3 2 2 2 2 1 1 2 1 1 1 0 1 1 1 1 2 1 1 1 1 1 1 2 2 1 0 0 1 1 1 1 0 0 0 1
5 4 4 7 7 5 6 6 6 4 3 2 2 1 2 2 1 1 1 1 1 1 1 1 2 1 0 1 1 1 1 2 1 1 0 1 1 1 1 1 1 1 1 1
5 7 8 9 6 5 6 4 4 4 4 4 3 3 2 1 1 1 1 0 1 1 1 1 1 1 1 1 1 1 1 2 2 1 0 0 0 0 0 1 2 3 3 4
Wind_Direction
175 209 231 243 240 269 305 286 280 289 278 238 246 257 250 231 230 232 219 206 205 197 174 153 144 136 134 136 135 135 125 114 110 109 112 108 91 65 54 53 67 70 57 31
193 243 256 271 272 267 274 280 281 298 325 277 268 266 260 235 222 225 224 210 201 189 177 160 151 146 150 153 151 147 140 134 132 128 141 146 141 152 132 81 58 57 58 32
218 269 271 266 283 271 266 268 278 289 302 261 271 270 239 227 216 213 221 215 202 194 190 175 168 167 164 167 164 159 148 141 137 126 118 89 78 75 63 70 85 58 59 44
245 271 267 256 260 264 262 282 290 285 285 268 228 277 248 218 210 208 213 214 206 195 190 184 176 176 172 166 157 154 153 153 154 152 153 163 161 167 213 197 182 114 104 108
236 238 263 250 259 257 270 304 283 270 269 280 244 252 260 197 222 212 207 208 204 189 187 184 177 175 166 155 153 152 153 157 156 167 187 196 201 185 157 152 161 167 179 194
247 257 268 269 282 256 283 293 276 252 245 256 228 224 263 209 215 209 200 197 192 181 177 174 164 154 154 149 150 156 163 165 160 173 205 219 211 195 170 172 188 210 214 229
235 217 214 255 240 218 228 228 281 250 227 244 208 223 248 219 207 196 188 191 181 171 169 170 166 162 163 161 161 164 170 175 174 182 206 231 229 211 200 194 202 209 213 229
227 229 186 196 210 214 221 210 205 239 253 273 245 239 246 196 132 136 160 169 161 165 171 175 174 167 168 167 168 172 177 181 181 189 206 222 225 216 216 211 212 219 216 223
230 238 130 184 266 239 218 222 241 255 281 277 247 237 244 206 185 183 168 166 173 177 172 171 167 166 169 171 176 181 180 182 185 191 198 208 213 219 213 216 216 215 228 230
258 247 213 177 229 246 250 241 199 207 236 261 265 244 234 207 210 201 196 199 198 176 165 164 164 164 165 169 174 178 181 182 184 188 197 207 215 231 212 192 221 215 220 220
236 215 218 196 203 205 197 208 214 222 233 238 269 263 201 200 201 212 216 194 182 173 166 161 155 151 145 152 167 177 181 178 183 189 195 203 220 223 203 202 224 205 206 206
200 207 233 221 209 270 232 216 196 208 239 235 259 266 26 42 43 166 186 171 164 169 162 154 149 146 152 164 174 181 181 181 186 184 188 204 215 208 212 222 227 204 202 206
170 191 237 262 246 223 234 230 224 226 244 231 238 261 305 15 8 35 146 193 175 165 156 150 152 158 169 175 174 184 178 181 180 176 183 201 211 220 231 234 233 214 201 203
183 217 218 227 236 193 228 232 221 210 225 241 239 260 278 279 287 296 278 217 186 178 174 169 173 176 175 173 171 177 185 173 177 182 192 206 217 222 233 238 233 222 202 199
174 228 240 259 272 255 241 237 223 222 225 232 249 255 263 269 268 255 228 200 200 207 206 198 192 183 174 172 175 171 191 173 171 174 193 225 231 218 212 227 233 228 216 208
188 226 248 262 253 257 263 249 232 232 236 244 260 266 266 275 277 259 230 206 212 220 214 212 198 180 176 182 182 180 196 173 164 177 196 215 232 227 228 245 238 230 226 208
190 190 222 255 261 294 258 233 220 226 228 227 241 250 265 279 273 268 257 231 220 223 222 216 198 187 181 181 178 193 190 156 159 179 185 182 188 229 262 283 275 248 248 222
189 197 221 254 256 244 245 223 207 227 242 232 245 263 258 254 265 263 241 225 238 230 220 204 190 178 166 153 154 165 145 146 160 175 187 181 181 242 274 267 265 272 269 254
207 199 218 220 247 265 264 233 197 220 257 232 237 252 261 279 314 284 243 220 233 231 192 170 154 142 131 131 129 130 139 144 149 170 210 232 208 228 267 277 276 280 283 283
219 211 222 225 238 247 246 212 196 201 262 246 229 242 239 203 262 264 299 26 57 89 126 123 116 108 114 111 116 133 151 145 178 216 255 272 217 220 243 263 276 289 279 287
178 207 221 230 243 257 251 198 132 203 251 297 231 231 213 217 236 262 36 38 69 74 87 98 104 109 116 109 121 142 146 176 258 5 353 349 311 261 255 280 288 280 297 312
188 194 209 213 233 249 197 160 198 227 292 311 298 249 223 232 245 219 108 81 70 68 80 92 96 90 88 104 120 138 160 2 34 43 30 346 318 305 319 358 320 315 296 288
212 207 205 208 226 254 184 207 230 240 264 287 290 290 227 239 252 196 148 117 84 87 99 99 109 97 79 84 113 155 341 46 56 66 46 337 334 348 8 116 284 329 304 281
241 232 234 253 257 257 251 266 274 260 248 271 280 281 249 251 237 186 161 146 119 95 110 107 119 124 88 59 55 71 65 79 99 104 50 10 35 25 23 6 351 301 275 280
222 195 226 252 264 284 268 255 258 265 264 269 286 282 254 242 238 212 209 188 158 107 99 119 143 160 167 83 60 49 75 97 105 112 81 28 32 18 4 5 351 303 279 251
214 211 215 239 233 234 262 269 271 267 266 256 257 281 292 236 225 218 220 196 137 144 130 132 145 154 153 122 91 61 103 125 132 132 109 77 42 349 340 357 349 348 336 334